Time,TemperatureF,DewpointF,PressureIn,WindDirection,WindDirectionDegrees,WindSpeedMPH,WindSpeedGustMPH,Humidity,HourlyPrecipIn,Conditions,Clouds,dailyrainin,SolarRadiationWatts/m^2,SoftwareType,DateUTC
2013-04-28 00:01:00,50.6,46.6,30.21,NW,311,0.0,1.0,86,0.00,,,0.00,0,Wunderground v.1.15,2013-04-28 04:01:00,
2013-04-28 00:02:00,50.6,46.9,30.21,NW,312,0.0,2.0,87,0.00,,,0.00,0,Wunderground v.1.15,2013-04-28 04:02:00,
2013-04-28 00:03:00,50.6,46.9,30.21,NW,313,0.0,2.0,87,0.00,,,0.00,0,Wunderground v.1.15,2013-04-28 04:03:00,
2013-04-28 00:04:00,50.6,46.9,30.21,NW,312,0.0,2.0,87,0.00,,,0.00,0,Wunderground v.1.15,2013-04-28 04:04:00,
2013-04-28 00:09:00,50.5,46.8,30.20,NW,310,0.0,2.0,87,0.00,,,0.00,0,Wunderground v.1.15,2013-04-28 04:09:00,
2013-04-28 00:11:00,50.4,46.7,30.20,NW,312,0.0,0.0,87,0.00,,,0.00,0,Wunderground v.1.15,2013-04-28 04:11:00,
2013-04-28 00:16:00,50.2,46.5,30.20,NW,313,0.0,0.0,87,0.00,,,0.00,0,Wunderground v.1.15,2013-04-28 04:16:00,
2013-04-28 00:21:00,50.0,46.3,30.20,NW,313,0.0,0.0,87,0.00,,,0.00,0,Wunderground v.1.15,2013-04-28 04:21:00,
2013-04-28 00:26:00,49.8,46.1,30.20,NW,315,0.0,0.0,87,0.00,,,0.00,0,Wunderground v.1.15,2013-04-28 04:26:00,
2013-04-28 00:31:00,49.7,46.3,30.20,NW,313,0.0,1.0,88,0.00,,,0.00,0,Wunderground v.1.15,2013-04-28 04:31:00,
2013-04-28 00:37:00,49.5,46.1,30.20,NW,311,0.0,1.0,88,0.00,,,0.00,0,Wunderground v.1.15,2013-04-28 04:37:00,
2013-04-28 00:42:00,49.3,45.9,30.21,NW,311,0.0,3.0,88,0.00,,,0.00,0,Wunderground v.1.15,2013-04-28 04:42:00,
2013-04-28 00:47:00,49.2,45.8,30.21,NW,311,1.0,3.0,88,0.00,,,0.00,0,Wunderground v.1.15,2013-04-28 04:47:00,
2013-04-28 00:52:00,49.1,46.0,30.21,NW,314,1.0,2.0,89,0.00,,,0.00,0,Wunderground v.1.15,2013-04-28 04:52:00,
2013-04-28 00:57:00,49.0,45.9,30.21,NW,311,1.0,2.0,89,0.00,,,0.00,0,Wunderground v.1.15,2013-04-28 04:57:00,
2013-04-28 01:03:00,48.8,45.7,30.21,NW,310,1.0,3.0,89,0.00,,,0.00,0,Wunderground v.1.15,2013-04-28 05:03:00,
2013-04-28 01:08:00,48.7,45.3,30.21,NW,312,2.0,3.0,88,0.00,,,0.00,0,Wunderground v.1.15,2013-04-28 05:08:00,
2013-04-28 01:13:00,48.6,45.2,30.20,NW,311,1.0,2.0,88,0.00,,,0.00,0,Wunderground v.1.15,2013-04-28 05:13:00,
2013-04-28 01:18:00,48.5,45.4,30.20,NW,311,0.0,2.0,89,0.00,,,0.00,0,Wunderground v.1.15,2013-04-28 05:18:00,
2013-04-28 01:23:00,48.3,45.2,30.20,NW,311,0.0,2.0,89,0.00,,,0.00,0,Wunderground v.1.15,2013-04-28 05:23:00,
2013-04-28 01:29:00,48.0,45.2,30.21,NW,313,0.0,2.0,90,0.00,,,0.00,0,Wunderground v.1.15,2013-04-28 05:29:00,
2013-04-28 01:34:00,47.7,44.9,30.20,NW,312,0.0,0.0,90,0.00,,,0.00,0,Wunderground v.1.15,2013-04-28 05:34:00,
2013-04-28 01:40:00,47.4,44.9,30.20,NW,316,0.0,0.0,91,0.00,,,0.00,0,Wunderground v.1.15,2013-04-28 05:40:00,
2013-04-28 01:45:00,47.2,45.0,30.20,NW,311,0.0,0.0,92,0.00,,,0.00,0,Wunderground v.1.15,2013-04-28 05:45:00,
2013-04-28 01:50:00,47.1,45.2,30.20,NW,309,0.0,0.0,93,0.00,,,0.00,0,Wunderground v.1.15,2013-04-28 05:50:00,
2013-04-28 01:55:00,47.0,45.1,30.19,NW,313,0.0,0.0,93,0.00,,,0.00,0,Wunderground v.1.15,2013-04-28 05:55:00,
2013-04-28 02:00:00,46.8,44.6,30.19,NW,313,0.0,0.0,92,0.00,,,0.00,0,Wunderground v.1.15,2013-04-28 06:00:00,
2013-04-28 02:06:00,46.5,44.6,30.19,NW,311,0.0,0.0,93,0.00,,,0.00,0,Wunderground v.1.15,2013-04-28 06:06:00,
2013-04-28 02:11:00,46.3,44.4,30.19,NW,312,0.0,0.0,93,0.00,,,0.00,0,Wunderground v.1.15,2013-04-28 06:11:00,
2013-04-28 02:16:00,46.1,44.5,30.19,NW,312,0.0,0.0,94,0.00,,,0.00,0,Wunderground v.1.15,2013-04-28 06:16:00,
2013-04-28 02:21:00,45.8,43.9,30.18,NW,312,0.0,0.0,93,0.00,,,0.00,0,Wunderground v.1.15,2013-04-28 06:21:00,
2013-04-28 02:26:00,45.6,44.0,30.18,NW,312,0.0,0.0,94,0.00,,,0.00,0,Wunderground v.1.15,2013-04-28 06:26:00,
2013-04-28 02:31:00,45.4,43.8,30.18,NW,313,0.0,0.0,94,0.00,,,0.00,0,Wunderground v.1.15,2013-04-28 06:31:00,
2013-04-28 02:36:00,45.2,43.9,30.18,NW,313,0.0,0.0,95,0.00,,,0.00,0,Wunderground v.1.15,2013-04-28 06:36:00,
2013-04-28 02:41:00,45.1,43.8,30.18,NW,313,0.0,0.0,95,0.00,,,0.00,0,Wunderground v.1.15,2013-04-28 06:41:00,
2013-04-28 02:47:00,44.9,43.6,30.18,NW,309,0.0,0.0,95,0.00,,,0.00,0,Wunderground v.1.15,2013-04-28 06:47:00,
2013-04-28 02:52:00,44.8,43.5,30.17,NW,312,0.0,2.0,95,0.00,,,0.00,0,Wunderground v.1.15,2013-04-28 06:52:00,
2013-04-28 02:58:00,44.5,43.4,30.17,NW,312,0.0,2.0,96,0.00,,,0.00,0,Wunderground v.1.15,2013-04-28 06:58:00,
2013-04-28 03:04:00,44.4,43.3,30.17,NW,311,0.0,0.0,96,0.00,,,0.00,0,Wunderground v.1.15,2013-04-28 07:04:00,
2013-04-28 03:09:00,44.2,43.4,30.17,NW,313,0.0,0.0,97,0.00,,,0.00,0,Wunderground v.1.15,2013-04-28 07:09:00,
2013-04-28 03:14:00,44.2,43.4,30.17,NW,313,0.0,0.0,97,0.00,,,0.00,0,Wunderground v.1.15,2013-04-28 07:14:00,
2013-04-28 03:19:00,44.1,43.3,30.17,NW,310,0.0,0.0,97,0.00,,,0.00,0,Wunderground v.1.15,2013-04-28 07:19:00,
2013-04-28 03:24:00,43.9,42.8,30.17,NW,310,0.0,0.0,96,0.00,,,0.00,0,Wunderground v.1.15,2013-04-28 07:24:00,
2013-04-28 03:29:00,43.7,42.6,30.16,NW,312,0.0,0.0,96,0.00,,,0.00,0,Wunderground v.1.15,2013-04-28 07:29:00,
2013-04-28 03:34:00,43.5,42.7,30.16,NW,313,0.0,0.0,97,0.00,,,0.00,0,Wunderground v.1.15,2013-04-28 07:34:00,
2013-04-28 03:40:00,43.4,42.6,30.16,NW,312,0.0,0.0,97,0.00,,,0.00,0,Wunderground v.1.15,2013-04-28 07:40:00,
2013-04-28 03:45:00,43.2,42.4,30.16,NW,312,0.0,0.0,97,0.00,,,0.00,0,Wunderground v.1.15,2013-04-28 07:45:00,
2013-04-28 03:50:00,43.2,42.7,30.16,NW,312,0.0,0.0,98,0.00,,,0.00,0,Wunderground v.1.15,2013-04-28 07:50:00,
2013-04-28 03:55:00,43.0,42.2,30.16,NW,313,0.0,0.0,97,0.00,,,0.00,0,Wunderground v.1.15,2013-04-28 07:55:00,
2013-04-28 04:00:00,42.9,42.4,30.17,NW,313,0.0,0.0,98,0.00,,,0.00,0,Wunderground v.1.15,2013-04-28 08:00:00,
2013-04-28 04:06:00,42.7,42.2,30.17,NW,313,1.0,2.0,98,0.00,,,0.00,0,Wunderground v.1.15,2013-04-28 08:06:00,
2013-04-28 04:11:00,42.6,42.1,30.17,NW,311,1.0,1.0,98,0.00,,,0.00,0,Wunderground v.1.15,2013-04-28 08:11:00,
2013-04-28 04:16:00,42.6,42.3,30.16,NW,311,0.0,1.0,99,0.00,,,0.00,0,Wunderground v.1.15,2013-04-28 08:16:00,
2013-04-28 04:21:00,42.5,42.2,30.17,NW,313,0.0,0.0,99,0.00,,,0.00,0,Wunderground v.1.15,2013-04-28 08:21:00,
2013-04-28 04:27:00,42.4,42.1,30.17,NW,313,0.0,0.0,99,0.00,,,0.00,0,Wunderground v.1.15,2013-04-28 08:27:00,
2013-04-28 04:32:00,42.3,42.0,30.17,NW,312,0.0,0.0,99,0.00,,,0.00,0,Wunderground v.1.15,2013-04-28 08:32:00,
2013-04-28 04:37:00,42.2,41.9,30.16,NW,313,0.0,0.0,99,0.00,,,0.00,0,Wunderground v.1.15,2013-04-28 08:37:00,
2013-04-28 04:43:00,42.0,41.7,30.16,NW,313,0.0,0.0,99,0.00,,,0.00,0,Wunderground v.1.15,2013-04-28 08:43:00,
2013-04-28 04:48:00,41.9,41.6,30.16,NW,313,0.0,0.0,99,0.00,,,0.00,0,Wunderground v.1.15,2013-04-28 08:48:00,
2013-04-28 04:53:00,41.9,41.9,30.16,NW,312,0.0,0.0,100,0.00,,,0.00,0,Wunderground v.1.15,2013-04-28 08:53:00,
2013-04-28 04:58:00,41.9,41.9,30.16,NW,312,0.0,0.0,100,0.00,,,0.00,0,Wunderground v.1.15,2013-04-28 08:58:00,
2013-04-28 05:04:00,41.7,41.7,30.16,NW,312,0.0,0.0,100,0.00,,,0.00,0,Wunderground v.1.15,2013-04-28 09:04:00,
2013-04-28 05:09:00,41.6,41.6,30.16,North,360,0.0,0.0,100,0.00,,,0.00,0,Wunderground v.1.15,2013-04-28 09:09:00,
2013-04-28 05:14:00,41.5,41.5,30.16,NW,313,0.0,1.0,100,0.00,,,0.00,0,Wunderground v.1.15,2013-04-28 09:14:00,
2013-04-28 05:19:00,41.4,41.4,30.16,NW,311,0.0,1.0,100,0.00,,,0.00,0,Wunderground v.1.15,2013-04-28 09:19:00,
2013-04-28 05:24:00,41.4,41.4,30.16,NW,312,0.0,0.0,100,0.00,,,0.00,0,Wunderground v.1.15,2013-04-28 09:24:00,
2013-04-28 05:29:00,41.6,41.6,30.16,NW,311,0.0,0.0,100,0.00,,,0.00,0,Wunderground v.1.15,2013-04-28 09:29:00,
2013-04-28 05:34:00,41.7,41.7,30.16,NW,312,0.0,0.0,100,0.00,,,0.00,0,Wunderground v.1.15,2013-04-28 09:34:00,
2013-04-28 05:39:00,41.7,41.7,30.16,NW,313,0.0,0.0,100,0.00,,,0.00,0,Wunderground v.1.15,2013-04-28 09:39:00,
2013-04-28 05:44:00,41.9,41.9,30.16,NW,314,0.0,0.0,100,0.00,,,0.00,0,Wunderground v.1.15,2013-04-28 09:44:00,
2013-04-28 05:49:00,42.0,42.0,30.16,NW,311,0.0,0.0,100,0.00,,,0.00,0,Wunderground v.1.15,2013-04-28 09:49:00,
2013-04-28 05:54:00,42.1,42.1,30.16,NW,313,0.0,0.0,100,0.00,,,0.00,0,Wunderground v.1.15,2013-04-28 09:54:00,
2013-04-28 06:00:00,42.4,42.4,30.16,NW,313,0.0,0.0,100,0.00,,,0.00,0,Wunderground v.1.15,2013-04-28 10:00:00,
2013-04-28 06:06:00,42.5,42.5,30.16,NW,308,0.0,0.0,100,0.00,,,0.00,0,Wunderground v.1.15,2013-04-28 10:06:00,
2013-04-28 06:12:00,42.6,42.6,30.16,NW,313,0.0,0.0,100,0.00,,,0.00,0,Wunderground v.1.15,2013-04-28 10:12:00,
2013-04-28 06:17:00,42.7,42.7,30.16,NW,311,0.0,0.0,100,0.00,,,0.00,5,Wunderground v.1.15,2013-04-28 10:17:00,
2013-04-28 06:22:00,42.8,42.8,30.16,NW,313,0.0,0.0,100,0.00,,,0.00,9,Wunderground v.1.15,2013-04-28 10:22:00,
2013-04-28 06:27:00,42.8,42.8,30.16,NW,312,0.0,0.0,100,0.00,,,0.00,14,Wunderground v.1.15,2013-04-28 10:27:00,
2013-04-28 06:32:00,42.9,42.9,30.16,NW,313,0.0,0.0,100,0.00,,,0.00,18,Wunderground v.1.15,2013-04-28 10:32:00,
2013-04-28 06:37:00,43.0,43.0,30.16,NW,313,0.0,0.0,100,0.00,,,0.00,21,Wunderground v.1.15,2013-04-28 10:37:00,
2013-04-28 06:42:00,43.2,43.2,30.16,NW,309,0.0,0.0,100,0.00,,,0.00,25,Wunderground v.1.15,2013-04-28 10:42:00,
2013-04-28 06:47:00,43.4,43.4,30.16,NW,313,0.0,0.0,100,0.00,,,0.00,25,Wunderground v.1.15,2013-04-28 10:47:00,
2013-04-28 06:53:00,43.6,43.6,30.16,NW,310,0.0,0.0,100,0.00,,,0.00,23,Wunderground v.1.15,2013-04-28 10:53:00,
2013-04-28 06:58:00,43.8,43.8,30.16,NW,311,0.0,0.0,100,0.00,,,0.00,23,Wunderground v.1.15,2013-04-28 10:58:00,
2013-04-28 07:03:00,44.0,44.0,30.16,NW,313,0.0,0.0,100,0.00,,,0.00,26,Wunderground v.1.15,2013-04-28 11:03:00,
2013-04-28 07:09:00,44.1,44.1,30.16,North,360,0.0,0.0,100,0.00,,,0.00,30,Wunderground v.1.15,2013-04-28 11:09:00,
2013-04-28 07:14:00,44.2,44.2,30.16,NW,311,0.0,0.0,100,0.00,,,0.00,33,Wunderground v.1.15,2013-04-28 11:14:00,
2013-04-28 07:19:00,44.5,44.5,30.16,NW,314,0.0,0.0,100,0.00,,,0.00,37,Wunderground v.1.15,2013-04-28 11:19:00,
2013-04-28 07:25:00,44.7,44.7,30.16,North,360,0.0,0.0,100,0.00,,,0.00,40,Wunderground v.1.15,2013-04-28 11:25:00,
2013-04-28 07:30:00,44.9,44.9,30.16,North,360,0.0,0.0,100,0.00,,,0.00,42,Wunderground v.1.15,2013-04-28 11:30:00,
2013-04-28 07:35:00,45.2,45.2,30.16,NW,310,0.0,0.0,100,0.00,,,0.00,42,Wunderground v.1.15,2013-04-28 11:35:00,
2013-04-28 07:40:00,45.4,45.1,30.16,NW,312,0.0,0.0,99,0.00,,,0.00,46,Wunderground v.1.15,2013-04-28 11:40:00,
2013-04-28 07:45:00,45.5,45.2,30.16,NW,310,0.0,0.0,99,0.00,,,0.00,58,Wunderground v.1.15,2013-04-28 11:45:00,
2013-04-28 07:50:00,45.7,45.4,30.16,NW,313,0.0,0.0,99,0.00,,,0.00,79,Wunderground v.1.15,2013-04-28 11:50:00,
2013-04-28 07:56:00,45.9,45.4,30.16,North,360,0.0,0.0,98,0.00,,,0.00,104,Wunderground v.1.15,2013-04-28 11:56:00,
2013-04-28 08:01:00,46.2,45.7,30.16,North,360,0.0,0.0,98,0.00,,,0.00,127,Wunderground v.1.15,2013-04-28 12:01:00,
2013-04-28 08:07:00,46.5,46.0,30.16,NW,312,0.0,0.0,98,0.00,,,0.00,132,Wunderground v.1.15,2013-04-28 12:07:00,
2013-04-28 08:12:00,46.9,46.4,30.16,North,360,0.0,0.0,98,0.00,,,0.00,125,Wunderground v.1.15,2013-04-28 12:12:00,
2013-04-28 08:18:00,47.4,46.9,30.16,North,360,0.0,0.0,98,0.00,,,0.00,139,Wunderground v.1.15,2013-04-28 12:18:00,
2013-04-28 08:23:00,47.8,47.0,30.16,NW,311,0.0,0.0,97,0.00,,,0.00,134,Wunderground v.1.15,2013-04-28 12:23:00,
2013-04-28 08:28:00,48.1,47.0,30.16,NW,310,0.0,0.0,96,0.00,,,0.00,104,Wunderground v.1.15,2013-04-28 12:28:00,
2013-04-28 08:33:00,48.5,47.4,30.16,NW,313,0.0,0.0,96,0.00,,,0.00,100,Wunderground v.1.15,2013-04-28 12:33:00,
2013-04-28 08:39:00,48.9,47.2,30.16,NW,313,0.0,0.0,94,0.00,,,0.00,107,Wunderground v.1.15,2013-04-28 12:39:00,
2013-04-28 08:44:00,49.2,47.5,30.16,NW,324,1.0,3.0,94,0.00,,,0.00,109,Wunderground v.1.15,2013-04-28 12:44:00,
2013-04-28 08:49:00,49.7,48.3,30.15,NE,49,2.0,4.0,95,0.00,,,0.00,123,Wunderground v.1.15,2013-04-28 12:49:00,
2013-04-28 08:54:00,50.2,48.0,30.15,NE,51,2.0,4.0,92,0.00,,,0.00,105,Wunderground v.1.15,2013-04-28 12:54:00,
2013-04-28 08:59:00,50.6,47.8,30.15,NE,53,3.0,4.0,90,0.00,,,0.00,95,Wunderground v.1.15,2013-04-28 12:59:00,
2013-04-28 09:04:00,51.0,47.9,30.15,NE,55,3.0,4.0,89,0.00,,,0.00,86,Wunderground v.1.15,2013-04-28 13:04:00,
2013-04-28 09:10:00,51.2,47.5,30.15,NE,47,3.0,3.0,87,0.00,,,0.00,79,Wunderground v.1.15,2013-04-28 13:10:00,
2013-04-28 09:15:00,51.5,47.8,30.15,NE,44,3.0,4.0,87,0.00,,,0.00,81,Wunderground v.1.15,2013-04-28 13:15:00,
2013-04-28 09:20:00,51.7,48.0,30.15,NE,45,3.0,3.0,87,0.00,,,0.00,72,Wunderground v.1.15,2013-04-28 13:20:00,
2013-04-28 09:25:00,51.9,48.2,30.15,NE,46,3.0,3.0,87,0.00,,,0.00,63,Wunderground v.1.15,2013-04-28 13:25:00,
2013-04-28 09:30:00,52.0,47.9,30.15,NE,46,2.0,2.0,86,0.00,,,0.00,69,Wunderground v.1.15,2013-04-28 13:30:00,
2013-04-28 09:36:00,52.2,48.1,30.15,NE,47,2.0,4.0,86,0.00,,,0.00,76,Wunderground v.1.15,2013-04-28 13:36:00,
2013-04-28 09:41:00,52.4,48.0,30.15,NE,46,1.0,4.0,85,0.00,,,0.00,77,Wunderground v.1.15,2013-04-28 13:41:00,
2013-04-28 09:47:00,52.6,47.9,30.15,NE,49,2.0,5.0,84,0.00,,,0.00,70,Wunderground v.1.15,2013-04-28 13:47:00,
2013-04-28 09:52:00,52.8,48.1,30.15,NE,46,2.0,2.0,84,0.00,,,0.00,65,Wunderground v.1.15,2013-04-28 13:52:00,
2013-04-28 09:57:00,52.9,48.2,30.15,NE,46,1.0,2.0,84,0.00,,,0.00,69,Wunderground v.1.15,2013-04-28 13:57:00,
2013-04-28 10:03:00,53.1,48.7,30.15,NE,46,1.0,2.0,85,0.00,,,0.00,63,Wunderground v.1.15,2013-04-28 14:03:00,
2013-04-28 10:09:00,53.2,48.5,30.16,NE,47,1.0,2.0,84,0.00,,,0.00,62,Wunderground v.1.15,2013-04-28 14:09:00,
2013-04-28 10:14:00,53.3,49.2,30.16,NE,46,0.0,1.0,86,0.00,,,0.00,67,Wunderground v.1.15,2013-04-28 14:14:00,
2013-04-28 10:19:00,53.3,49.5,30.16,NE,46,0.0,1.0,87,0.00,,,0.00,70,Wunderground v.1.15,2013-04-28 14:19:00,
2013-04-28 10:24:00,53.4,50.5,30.16,NE,45,0.0,0.0,90,0.00,,,0.00,86,Wunderground v.1.15,2013-04-28 14:24:00,
2013-04-28 10:29:00,53.4,50.5,30.16,NE,46,0.0,0.0,90,0.00,,,0.00,91,Wunderground v.1.15,2013-04-28 14:29:00,
2013-04-28 10:34:00,53.4,51.1,30.16,NE,47,0.0,0.0,92,0.00,,,0.01,109,Wunderground v.1.15,2013-04-28 14:34:00,
2013-04-28 10:40:00,53.3,51.6,30.16,NE,47,0.0,0.0,94,0.00,,,0.01,107,Wunderground v.1.15,2013-04-28 14:40:00,
2013-04-28 10:45:00,53.3,51.9,30.16,NE,46,0.0,0.0,95,0.00,,,0.01,91,Wunderground v.1.15,2013-04-28 14:45:00,
2013-04-28 10:51:00,53.3,51.9,30.16,NE,46,0.0,0.0,95,0.00,,,0.01,88,Wunderground v.1.15,2013-04-28 14:51:00,
2013-04-28 10:56:00,53.3,52.5,30.16,NE,40,0.0,0.0,97,0.00,,,0.02,97,Wunderground v.1.15,2013-04-28 14:56:00,
2013-04-28 11:02:00,53.1,52.0,30.16,NE,48,0.0,0.0,96,0.00,,,0.02,84,Wunderground v.1.15,2013-04-28 15:02:00,
2013-04-28 11:07:00,53.1,52.3,30.16,NE,46,0.0,0.0,97,0.05,,,0.03,88,Wunderground v.1.15,2013-04-28 15:07:00,
2013-04-28 11:12:00,53.1,52.6,30.16,NE,46,0.0,0.0,98,0.05,,,0.03,104,Wunderground v.1.15,2013-04-28 15:12:00,
2013-04-28 11:17:00,53.0,52.7,30.16,NE,47,0.0,0.0,99,0.07,,,0.04,98,Wunderground v.1.15,2013-04-28 15:17:00,
2013-04-28 11:22:00,52.9,52.6,30.16,NE,46,0.0,0.0,99,0.07,,,0.04,123,Wunderground v.1.15,2013-04-28 15:22:00,
2013-04-28 11:27:00,52.8,52.5,30.16,NE,46,0.0,1.0,99,0.07,,,0.05,109,Wunderground v.1.15,2013-04-28 15:27:00,
2013-04-28 11:33:00,52.7,52.7,30.16,NE,49,0.0,0.0,100,0.09,,,0.06,120,Wunderground v.1.15,2013-04-28 15:33:00,
2013-04-28 11:38:00,52.7,52.7,30.16,NE,48,1.0,3.0,100,0.08,,,0.07,137,Wunderground v.1.15,2013-04-28 15:38:00,
2013-04-28 11:43:00,52.6,52.6,30.15,NE,46,1.0,2.0,100,0.08,,,0.07,137,Wunderground v.1.15,2013-04-28 15:43:00,
2013-04-28 11:48:00,52.6,52.6,30.15,NE,46,1.0,2.0,100,0.05,,,0.07,128,Wunderground v.1.15,2013-04-28 15:48:00,
2013-04-28 11:53:00,52.6,52.6,30.15,NE,45,1.0,3.0,100,0.05,,,0.08,105,Wunderground v.1.15,2013-04-28 15:53:00,
2013-04-28 11:58:00,52.6,52.6,30.15,NE,45,1.0,3.0,100,0.07,,,0.09,98,Wunderground v.1.15,2013-04-28 15:58:00,
2013-04-28 12:03:00,52.6,52.6,30.15,NE,45,1.0,4.0,100,0.07,,,0.09,81,Wunderground v.1.15,2013-04-28 16:03:00,
2013-04-28 12:09:00,52.5,52.5,30.15,NE,46,3.0,5.0,100,0.08,,,0.10,86,Wunderground v.1.15,2013-04-28 16:09:00,
2013-04-28 12:14:00,52.5,52.5,30.15,NE,46,2.0,3.0,100,0.09,,,0.11,91,Wunderground v.1.15,2013-04-28 16:14:00,
2013-04-28 12:20:00,52.6,52.6,30.15,NE,46,1.0,3.0,100,0.09,,,0.12,79,Wunderground v.1.15,2013-04-28 16:20:00,
2013-04-28 12:25:00,52.6,52.6,30.15,NE,46,2.0,4.0,100,0.12,,,0.13,81,Wunderground v.1.15,2013-04-28 16:25:00,
2013-04-28 12:30:00,52.5,52.5,30.14,NE,42,3.0,3.0,100,0.11,,,0.13,76,Wunderground v.1.15,2013-04-28 16:30:00,
2013-04-28 12:35:00,52.4,52.4,30.14,NNE,17,3.0,4.0,100,0.12,,,0.14,86,Wunderground v.1.15,2013-04-28 16:35:00,
2013-04-28 12:40:00,52.5,52.5,30.14,NE,36,3.0,3.0,100,0.12,,,0.15,120,Wunderground v.1.15,2013-04-28 16:40:00,
2013-04-28 12:45:00,52.5,52.5,30.14,NE,36,3.0,4.0,100,0.09,,,0.16,105,Wunderground v.1.15,2013-04-28 16:45:00,
2013-04-28 12:50:00,52.5,52.5,30.14,NE,35,2.0,2.0,100,0.11,,,0.17,100,Wunderground v.1.15,2013-04-28 16:50:00,
2013-04-28 12:55:00,52.7,52.7,30.13,NE,37,1.0,3.0,100,0.08,,,0.17,104,Wunderground v.1.15,2013-04-28 16:55:00,
2013-04-28 13:00:00,52.8,52.8,30.13,NE,42,3.0,4.0,100,0.07,,,0.18,83,Wunderground v.1.15,2013-04-28 17:00:00,
2013-04-28 13:06:00,52.8,52.8,30.13,NE,53,3.0,5.0,100,0.07,,,0.19,114,Wunderground v.1.15,2013-04-28 17:06:00,
2013-04-28 13:11:00,52.8,52.8,30.13,NE,42,3.0,4.0,100,0.07,,,0.19,76,Wunderground v.1.15,2013-04-28 17:11:00,
2013-04-28 13:16:00,52.8,52.8,30.12,ENE,59,3.0,7.0,100,0.06,,,0.20,86,Wunderground v.1.15,2013-04-28 17:16:00,
2013-04-28 13:21:00,52.9,52.9,30.12,ENE,59,3.0,3.0,100,0.11,,,0.21,62,Wunderground v.1.15,2013-04-28 17:21:00,
2013-04-28 13:26:00,53.1,53.1,30.12,ENE,59,2.0,3.0,100,0.11,,,0.21,76,Wunderground v.1.15,2013-04-28 17:26:00,
2013-04-28 13:32:00,53.1,53.1,30.12,NE,49,2.0,4.0,100,0.08,,,0.22,47,Wunderground v.1.15,2013-04-28 17:32:00,
2013-04-28 13:37:00,53.2,53.2,30.12,ENE,59,3.0,4.0,100,0.14,,,0.23,51,Wunderground v.1.15,2013-04-28 17:37:00,
2013-04-28 13:42:00,53.3,53.3,30.12,ENE,59,2.0,2.0,100,0.10,,,0.24,65,Wunderground v.1.15,2013-04-28 17:42:00,
2013-04-28 13:47:00,53.3,53.3,30.12,East,81,1.0,3.0,100,0.11,,,0.25,51,Wunderground v.1.15,2013-04-28 17:47:00,
2013-04-28 13:52:00,53.5,53.5,30.12,SE,132,2.0,4.0,100,0.09,,,0.26,63,Wunderground v.1.15,2013-04-28 17:52:00,
2013-04-28 13:58:00,53.7,53.7,30.12,SSE,147,2.0,4.0,100,0.09,,,0.26,93,Wunderground v.1.15,2013-04-28 17:58:00,
2013-04-28 14:03:00,53.8,53.8,30.12,SE,145,3.0,10.0,100,0.09,,,0.27,95,Wunderground v.1.15,2013-04-28 18:03:00,
2013-04-28 14:08:00,54.0,54.0,30.12,SSE,159,7.0,10.0,100,0.06,,,0.27,88,Wunderground v.1.15,2013-04-28 18:08:00,
2013-04-28 14:13:00,54.0,54.0,30.12,SE,142,6.0,7.0,100,0.06,,,0.28,84,Wunderground v.1.15,2013-04-28 18:13:00,
2013-04-28 14:19:00,54.3,54.3,30.12,South,182,5.0,10.0,100,0.08,,,0.29,79,Wunderground v.1.15,2013-04-28 18:19:00,
2013-04-28 14:24:00,54.3,54.3,30.11,South,180,6.0,8.0,100,0.08,,,0.29,83,Wunderground v.1.15,2013-04-28 18:24:00,
2013-04-28 14:29:00,54.3,54.3,30.11,SSE,157,7.0,10.0,100,0.05,,,0.30,91,Wunderground v.1.15,2013-04-28 18:29:00,
2013-04-28 14:34:00,54.3,54.3,30.11,SE,132,6.0,10.0,100,0.05,,,0.30,97,Wunderground v.1.15,2013-04-28 18:34:00,
2013-04-28 14:39:00,54.3,54.3,30.11,SE,134,5.0,10.0,100,0.07,,,0.31,104,Wunderground v.1.15,2013-04-28 18:39:00,
2013-04-28 14:45:00,54.5,54.5,30.11,SSE,167,4.0,5.0,100,0.07,,,0.31,81,Wunderground v.1.15,2013-04-28 18:45:00,
2013-04-28 14:51:00,54.5,54.5,30.10,SE,124,5.0,5.0,100,0.04,,,0.31,81,Wunderground v.1.15,2013-04-28 18:51:00,
2013-04-28 14:56:00,54.5,54.5,30.10,SSE,164,4.0,6.0,100,0.00,,,0.31,104,Wunderground v.1.15,2013-04-28 18:56:00,
2013-04-28 15:01:00,54.4,54.4,30.10,South,169,4.0,5.0,100,0.00,,,0.31,58,Wunderground v.1.15,2013-04-28 19:01:00,
2013-04-28 15:06:00,54.4,54.4,30.10,South,187,4.0,5.0,100,0.00,,,0.31,49,Wunderground v.1.15,2013-04-28 19:06:00,
2013-04-28 15:12:00,54.4,54.4,30.10,SE,130,4.0,4.0,100,0.00,,,0.31,51,Wunderground v.1.15,2013-04-28 19:12:00,
2013-04-28 15:18:00,54.4,54.4,30.10,SSE,153,4.0,10.0,100,0.00,,,0.31,39,Wunderground v.1.15,2013-04-28 19:18:00,
2013-04-28 15:23:00,54.3,54.3,30.09,SE,138,4.0,5.0,100,0.00,,,0.31,35,Wunderground v.1.15,2013-04-28 19:23:00,
2013-04-28 15:28:00,54.2,54.2,30.09,SSE,161,4.0,8.0,100,0.00,,,0.31,33,Wunderground v.1.15,2013-04-28 19:28:00,
2013-04-28 15:33:00,54.2,54.2,30.09,SE,134,7.0,11.0,100,0.00,,,0.31,30,Wunderground v.1.15,2013-04-28 19:33:00,
2013-04-28 15:38:00,54.1,54.1,30.09,SE,127,6.0,11.0,100,0.00,,,0.31,25,Wunderground v.1.15,2013-04-28 19:38:00,
2013-04-28 15:44:00,54.1,54.1,30.09,SSE,149,5.0,9.0,100,0.00,,,0.31,25,Wunderground v.1.15,2013-04-28 19:44:00,
2013-04-28 15:49:00,54.0,54.0,30.08,ESE,105,5.0,9.0,100,0.00,,,0.31,28,Wunderground v.1.15,2013-04-28 19:49:00,
2013-04-28 15:54:00,54.0,54.0,30.08,SSE,150,4.0,7.0,100,0.00,,,0.31,26,Wunderground v.1.15,2013-04-28 19:54:00,
2013-04-28 15:59:00,54.0,54.0,30.08,SE,142,4.0,9.0,100,0.00,,,0.31,33,Wunderground v.1.15,2013-04-28 19:59:00,
2013-04-28 16:04:00,53.9,53.9,30.07,ESE,109,5.0,9.0,100,0.00,,,0.31,42,Wunderground v.1.15,2013-04-28 20:04:00,
2013-04-28 16:10:00,53.9,53.6,30.08,SSE,147,4.0,5.0,99,0.00,,,0.31,28,Wunderground v.1.15,2013-04-28 20:10:00,
2013-04-28 16:15:00,53.9,53.6,30.08,SE,138,5.0,7.0,99,0.00,,,0.31,25,Wunderground v.1.15,2013-04-28 20:15:00,
2013-04-28 16:20:00,53.9,53.6,30.08,SE,141,6.0,7.0,99,0.00,,,0.31,18,Wunderground v.1.15,2013-04-28 20:20:00,
2013-04-28 16:25:00,53.9,53.6,30.09,SSE,165,5.0,7.0,99,0.00,,,0.31,16,Wunderground v.1.15,2013-04-28 20:25:00,
2013-04-28 16:30:00,53.9,53.6,30.08,SE,144,5.0,5.0,99,0.00,,,0.31,21,Wunderground v.1.15,2013-04-28 20:30:00,
2013-04-28 16:35:00,53.8,53.2,30.08,SE,144,7.0,11.0,98,0.00,,,0.31,35,Wunderground v.1.15,2013-04-28 20:35:00,
2013-04-28 16:40:00,53.8,53.2,30.08,ESE,111,8.0,8.0,98,0.00,,,0.32,40,Wunderground v.1.15,2013-04-28 20:40:00,
2013-04-28 16:46:00,53.7,53.1,30.08,South,174,7.0,9.0,98,0.00,,,0.32,37,Wunderground v.1.15,2013-04-28 20:46:00,
2013-04-28 16:51:00,53.6,53.0,30.08,SSE,150,6.0,6.0,98,0.00,,,0.32,35,Wunderground v.1.15,2013-04-28 20:51:00,
2013-04-28 16:56:00,53.6,53.0,30.08,SSE,152,6.0,12.0,98,0.00,,,0.32,30,Wunderground v.1.15,2013-04-28 20:56:00,
2013-04-28 17:01:00,53.5,52.9,30.08,SE,134,6.0,6.0,98,0.00,,,0.32,30,Wunderground v.1.15,2013-04-28 21:01:00,
2013-04-28 17:06:00,53.5,52.9,30.08,SE,138,5.0,11.0,98,0.00,,,0.32,28,Wunderground v.1.15,2013-04-28 21:06:00,
2013-04-28 17:12:00,53.5,52.9,30.08,SE,139,6.0,7.0,98,0.00,,,0.32,26,Wunderground v.1.15,2013-04-28 21:12:00,
2013-04-28 17:17:00,53.5,52.7,30.07,SSE,163,6.0,9.0,97,0.00,,,0.32,28,Wunderground v.1.15,2013-04-28 21:17:00,
2013-04-28 17:22:00,53.5,52.7,30.08,SE,127,7.0,7.0,97,0.00,,,0.32,19,Wunderground v.1.15,2013-04-28 21:22:00,
2013-04-28 17:27:00,53.5,52.7,30.08,South,169,6.0,7.0,97,0.00,,,0.32,19,Wunderground v.1.15,2013-04-28 21:27:00,
2013-04-28 17:32:00,53.4,52.6,30.07,SE,126,4.0,7.0,97,0.00,,,0.32,21,Wunderground v.1.15,2013-04-28 21:32:00,
2013-04-28 17:37:00,53.4,52.6,30.07,ESE,116,3.0,7.0,97,0.00,,,0.32,19,Wunderground v.1.15,2013-04-28 21:37:00,
2013-04-28 17:43:00,53.4,52.6,30.08,SE,140,3.0,4.0,97,0.00,,,0.32,16,Wunderground v.1.15,2013-04-28 21:43:00,
2013-04-28 17:48:00,53.4,52.8,30.08,SSE,150,3.0,6.0,98,0.00,,,0.32,14,Wunderground v.1.15,2013-04-28 21:48:00,
2013-04-28 17:53:00,53.3,52.8,30.08,SSE,161,3.0,6.0,98,0.00,,,0.32,12,Wunderground v.1.15,2013-04-28 21:53:00,
2013-04-28 17:58:00,53.3,52.8,30.07,ESE,113,3.0,6.0,98,0.00,,,0.32,12,Wunderground v.1.15,2013-04-28 21:58:00,
2013-04-28 18:04:00,53.2,52.4,30.07,East,81,2.0,5.0,97,0.00,,,0.32,12,Wunderground v.1.15,2013-04-28 22:04:00,
2013-04-28 18:09:00,53.2,52.7,30.07,East,96,3.0,5.0,98,0.00,,,0.32,12,Wunderground v.1.15,2013-04-28 22:09:00,
2013-04-28 18:14:00,53.2,52.9,30.06,ESE,123,4.0,5.0,99,0.00,,,0.32,14,Wunderground v.1.15,2013-04-28 22:14:00,
2013-04-28 18:19:00,53.2,52.9,30.06,East,98,4.0,7.0,99,0.00,,,0.32,16,Wunderground v.1.15,2013-04-28 22:19:00,
2013-04-28 18:25:00,53.1,52.8,30.06,SE,128,4.0,5.0,99,0.00,,,0.32,14,Wunderground v.1.15,2013-04-28 22:25:00,
2013-04-28 18:30:00,53.0,52.7,30.06,ENE,75,3.0,3.0,99,0.00,,,0.32,12,Wunderground v.1.15,2013-04-28 22:30:00,
2013-04-28 18:35:00,53.0,52.2,30.06,SE,125,3.0,7.0,97,0.00,,,0.32,11,Wunderground v.1.15,2013-04-28 22:35:00,
2013-04-28 18:40:00,53.1,52.3,30.06,ESE,123,2.0,3.0,97,0.00,,,0.32,11,Wunderground v.1.15,2013-04-28 22:40:00,
2013-04-28 18:45:00,53.1,52.3,30.05,ESE,111,1.0,3.0,97,0.00,,,0.32,11,Wunderground v.1.15,2013-04-28 22:45:00,
2013-04-28 18:50:00,53.1,52.3,30.06,ESE,117,1.0,1.0,97,0.00,,,0.32,11,Wunderground v.1.15,2013-04-28 22:50:00,
2013-04-28 18:55:00,53.1,52.3,30.06,South,173,2.0,3.0,97,0.00,,,0.32,9,Wunderground v.1.15,2013-04-28 22:55:00,
2013-04-28 19:00:00,53.1,52.8,30.05,ENE,66,1.0,1.0,99,0.00,,,0.32,9,Wunderground v.1.15,2013-04-28 23:00:00,
2013-04-28 19:06:00,53.2,52.9,30.06,ENE,66,0.0,1.0,99,0.00,,,0.32,7,Wunderground v.1.15,2013-04-28 23:06:00,
2013-04-28 19:11:00,53.1,53.1,30.06,ENE,64,0.0,1.0,100,0.00,,,0.32,7,Wunderground v.1.15,2013-04-28 23:11:00,
2013-04-28 19:16:00,53.1,53.1,30.06,ENE,65,1.0,3.0,100,0.00,,,0.32,7,Wunderground v.1.15,2013-04-28 23:16:00,
2013-04-28 19:21:00,52.9,52.9,30.05,ENE,66,1.0,1.0,100,0.00,,,0.32,7,Wunderground v.1.15,2013-04-28 23:21:00,
2013-04-28 19:26:00,52.8,52.8,30.05,ENE,67,1.0,3.0,100,0.00,,,0.32,7,Wunderground v.1.15,2013-04-28 23:26:00,
2013-04-28 19:31:00,52.8,52.8,30.05,East,79,2.0,5.0,100,0.00,,,0.32,5,Wunderground v.1.15,2013-04-28 23:31:00,
2013-04-28 19:36:00,52.7,52.7,30.05,East,84,2.0,5.0,100,0.00,,,0.32,5,Wunderground v.1.15,2013-04-28 23:36:00,
2013-04-28 19:41:00,52.6,52.6,30.06,ENE,71,2.0,4.0,100,0.00,,,0.32,5,Wunderground v.1.15,2013-04-28 23:41:00,
2013-04-28 19:46:00,52.5,52.5,30.06,SSE,148,2.0,4.0,100,0.00,,,0.32,0,Wunderground v.1.15,2013-04-28 23:46:00,
2013-04-28 19:51:00,52.4,52.1,30.06,SSE,159,4.0,7.0,99,0.00,,,0.32,0,Wunderground v.1.15,2013-04-28 23:51:00,
2013-04-28 19:57:00,52.5,52.2,30.06,SE,137,3.0,7.0,99,0.00,,,0.32,0,Wunderground v.1.15,2013-04-28 23:57:00,
2013-04-28 20:02:00,52.6,51.8,30.06,SE,142,3.0,9.0,97,0.00,,,0.32,0,Wunderground v.1.15,2013-04-29 00:02:00,
2013-04-28 20:08:00,52.8,51.7,30.07,ESE,118,4.0,9.0,96,0.00,,,0.32,0,Wunderground v.1.15,2013-04-29 00:08:00,
2013-04-28 20:13:00,52.9,51.8,30.07,SSW,196,3.0,4.0,96,0.00,,,0.32,0,Wunderground v.1.15,2013-04-29 00:13:00,
2013-04-28 20:19:00,52.9,51.8,30.07,South,180,3.0,7.0,96,0.00,,,0.32,0,Wunderground v.1.15,2013-04-29 00:19:00,
2013-04-28 20:24:00,52.9,51.2,30.07,SSE,159,5.0,8.0,94,0.00,,,0.32,0,Wunderground v.1.15,2013-04-29 00:24:00,
2013-04-28 20:29:00,52.9,51.2,30.07,South,169,4.0,8.0,94,0.00,,,0.32,0,Wunderground v.1.15,2013-04-29 00:29:00,
2013-04-28 20:34:00,52.9,50.9,30.07,SSE,147,5.0,9.0,93,0.00,,,0.32,0,Wunderground v.1.15,2013-04-29 00:34:00,
2013-04-28 20:39:00,53.0,50.7,30.07,SSE,151,6.0,9.0,92,0.00,,,0.32,0,Wunderground v.1.15,2013-04-29 00:39:00,
2013-04-28 20:44:00,53.0,50.4,30.07,SSW,194,6.0,7.0,91,0.00,,,0.32,0,Wunderground v.1.15,2013-04-29 00:44:00,
2013-04-28 20:50:00,53.2,50.9,30.07,South,171,6.0,7.0,92,0.00,,,0.32,0,Wunderground v.1.15,2013-04-29 00:50:00,
2013-04-28 20:55:00,53.2,50.6,30.07,SSE,163,5.0,7.0,91,0.00,,,0.32,0,Wunderground v.1.15,2013-04-29 00:55:00,
2013-04-28 21:00:00,53.2,51.2,30.07,SSE,163,5.0,6.0,93,0.00,,,0.32,0,Wunderground v.1.15,2013-04-29 01:00:00,
2013-04-28 21:06:00,53.1,50.8,30.07,SSE,161,6.0,10.0,92,0.00,,,0.32,0,Wunderground v.1.15,2013-04-29 01:06:00,
2013-04-28 21:11:00,53.1,50.5,30.07,SSW,205,7.0,7.0,91,0.00,,,0.32,0,Wunderground v.1.15,2013-04-29 01:11:00,
2013-04-28 21:16:00,53.2,50.6,30.07,SSE,163,6.0,8.0,91,0.00,,,0.32,0,Wunderground v.1.15,2013-04-29 01:16:00,
2013-04-28 21:21:00,53.2,50.6,30.07,South,188,5.0,5.0,91,0.00,,,0.32,0,Wunderground v.1.15,2013-04-29 01:21:00,
2013-04-28 21:26:00,53.2,50.9,30.07,SSE,168,5.0,9.0,92,0.00,,,0.32,0,Wunderground v.1.15,2013-04-29 01:26:00,
2013-04-28 21:31:00,53.2,50.6,30.07,SSE,159,5.0,5.0,91,0.00,,,0.32,0,Wunderground v.1.15,2013-04-29 01:31:00,
2013-04-28 21:37:00,53.2,50.3,30.08,South,181,6.0,9.0,90,0.00,,,0.32,0,Wunderground v.1.15,2013-04-29 01:37:00,
2013-04-28 21:42:00,53.3,50.7,30.07,SSE,161,6.0,8.0,91,0.00,,,0.32,0,Wunderground v.1.15,2013-04-29 01:42:00,
2013-04-28 21:47:00,53.3,50.7,30.08,SSE,148,6.0,8.0,91,0.00,,,0.32,0,Wunderground v.1.15,2013-04-29 01:47:00,
2013-04-28 21:52:00,53.3,50.4,30.08,SSE,167,5.0,8.0,90,0.00,,,0.32,0,Wunderground v.1.15,2013-04-29 01:52:00,
2013-04-28 21:57:00,53.3,50.7,30.08,South,171,5.0,8.0,91,0.00,,,0.32,0,Wunderground v.1.15,2013-04-29 01:57:00,
2013-04-28 22:03:00,53.3,50.7,30.08,South,178,6.0,8.0,91,0.00,,,0.32,0,Wunderground v.1.15,2013-04-29 02:03:00,
2013-04-28 22:08:00,53.3,50.7,30.07,SSE,163,5.0,8.0,91,0.00,,,0.32,0,Wunderground v.1.15,2013-04-29 02:08:00,
2013-04-28 22:13:00,53.2,50.6,30.08,SSE,151,5.0,8.0,91,0.00,,,0.32,0,Wunderground v.1.15,2013-04-29 02:13:00,
2013-04-28 22:19:00,53.2,50.6,30.08,South,173,6.0,8.0,91,0.00,,,0.32,0,Wunderground v.1.15,2013-04-29 02:19:00,
2013-04-28 22:25:00,53.2,50.6,30.08,SSE,150,7.0,10.0,91,0.00,,,0.32,0,Wunderground v.1.15,2013-04-29 02:25:00,
2013-04-28 22:30:00,53.2,50.6,30.07,SE,146,5.0,5.0,91,0.00,,,0.32,0,Wunderground v.1.15,2013-04-29 02:30:00,
2013-04-28 22:35:00,53.2,50.9,30.08,SE,145,4.0,7.0,92,0.00,,,0.32,0,Wunderground v.1.15,2013-04-29 02:35:00,
2013-04-28 22:40:00,53.2,50.9,30.08,South,174,4.0,4.0,92,0.00,,,0.32,0,Wunderground v.1.15,2013-04-29 02:40:00,
2013-04-28 22:45:00,53.2,50.6,30.08,SSE,165,5.0,7.0,91,0.00,,,0.32,0,Wunderground v.1.15,2013-04-29 02:45:00,
2013-04-28 22:50:00,53.2,50.9,30.07,SSE,159,4.0,4.0,92,0.00,,,0.32,0,Wunderground v.1.15,2013-04-29 02:50:00,
2013-04-28 22:55:00,53.2,50.9,30.07,South,173,3.0,5.0,92,0.00,,,0.32,0,Wunderground v.1.15,2013-04-29 02:55:00,
2013-04-28 23:00:00,53.1,50.8,30.07,SSE,153,4.0,4.0,92,0.00,,,0.32,0,Wunderground v.1.15,2013-04-29 03:00:00,
2013-04-28 23:06:00,53.1,50.8,30.07,SSE,162,4.0,8.0,92,0.00,,,0.32,0,Wunderground v.1.15,2013-04-29 03:06:00,
2013-04-28 23:11:00,53.2,50.6,30.07,South,172,4.0,6.0,91,0.00,,,0.32,0,Wunderground v.1.15,2013-04-29 03:11:00,
2013-04-28 23:16:00,53.2,50.9,30.07,South,182,4.0,6.0,92,0.00,,,0.32,0,Wunderground v.1.15,2013-04-29 03:16:00,
2013-04-28 23:21:00,53.2,50.9,30.07,SSE,164,4.0,4.0,92,0.00,,,0.32,0,Wunderground v.1.15,2013-04-29 03:21:00,
2013-04-28 23:26:00,53.3,51.0,30.07,SSE,165,3.0,4.0,92,0.00,,,0.32,0,Wunderground v.1.15,2013-04-29 03:26:00,
2013-04-28 23:31:00,53.2,51.2,30.07,SSE,157,2.0,4.0,93,0.00,,,0.32,0,Wunderground v.1.15,2013-04-29 03:31:00,
2013-04-28 23:37:00,53.2,50.9,30.07,South,172,3.0,7.0,92,0.00,,,0.32,0,Wunderground v.1.15,2013-04-29 03:37:00,
2013-04-28 23:42:00,53.2,51.2,30.07,SSE,163,3.0,5.0,93,0.00,,,0.32,0,Wunderground v.1.15,2013-04-29 03:42:00,
2013-04-28 23:47:00,53.1,51.4,30.07,SSE,161,2.0,5.0,94,0.00,,,0.32,0,Wunderground v.1.15,2013-04-29 03:47:00,
2013-04-28 23:52:00,53.1,51.4,30.07,SE,138,2.0,3.0,94,0.00,,,0.32,0,Wunderground v.1.15,2013-04-29 03:52:00,
2013-04-28 23:57:00,53.0,51.3,30.06,SSE,154,2.0,5.0,94,0.00,,,0.00,0,Wunderground v.1.15,2013-04-29 03:57:00,